{"data":{"norad_id":65357,"epoch":"2026-09-20T12:42:00.311328Z","epoch_age_seconds":115267,"freshness":"FRESH","line1":"1 65357U 25190G   26263.52917027  .00025430  00000+0  76131-3 0  9999","line2":"2 65357  53.1600 339.7943 0001435  82.5355 277.5810 15.34395715 59166","mean_motion":15.34395715,"eccentricity":0.0001435,"inclination_deg":53.16,"raan_deg":339.7943,"arg_perigee_deg":82.5355,"mean_anomaly_deg":277.581,"bstar":0.00076131,"rev_number":5916,"period_min":93.84802016343,"perigee_km":461.73431375769,"apogee_km":463.69763856185,"semimajor_km":6840.8529761598,"source":"CELESTRAK","updated_at":"2026-09-21T09:00:35.576172Z"}}